Goodland, KS

6:35 AM MDT on March 23, 2017 (GMT -0600)
Renner-Goodland Municipal

Weather History for KGLD - November, 2012

Change the Weather History Date:

Friday, November 16, 2012

  Actual Average Record
Temperature  
Mean Temperature 41 °F 39 °F  
Max Temperature 58 °F 52 °F 82 °F (2016)
Min Temperature 24 °F 25 °F -3 °F (1955)
Degree Days  
Heating Degree Days 24 26  
Month to date heating degree days 321 362  
Since 1 July heating degree days 855 902  
Cooling Degree Days 0 0  
Month to date cooling degree days 0 0  
Year to date cooling degree days 1338 941  
Moisture  
Dew Point 28 °F    
Average Humidity 55    
Maximum Humidity 79    
Minimum Humidity 30    
Precipitation  
Precipitation 0.00 in 0.02 in 0.71 in (1991)
Month to date precipitation T 0.44  
Year to date precipitation 9.02 18.93  
Snow  
Snow 0.00 in 0.20 in - ()
Month to date snowfall T 2.2  
Since 1 July snowfall 0.5 4.8  
Since 1 September snowfall 0.5 4.8  
Snow Depth 0.00 in    
Sea Level Pressure  
Sea Level Pressure 30.26 in    
Wind  
Wind Speed 15 mph (South)    
Max Wind Speed 26 mph    
Max Gust Speed 32 mph    
Visibility 10 miles    
Events      
T = Trace of Precipitation, MM = Missing Value Source: NWS Daily Summary

Daily Weather History Graph

Daily Weather History Graph

Search for Another Location

Airport or City:

Trip Planner

Search our weather history database for the weather conditions in past years. The results will help you decide how hot, cold, wet, or windy it might be!

Date:

Astronomy

Nov. 16, 2012 Rise Set
Actual Time 6:32 AM MST 4:30 PM MST
Civil Twilight 6:03 AM MST 4:59 PM MST
Nautical Twilight 5:30 AM MST 5:32 PM MST
Astronomical Twilight 4:59 AM MST 6:03 PM MST
Moon 9:28 AM MST (11/16) 7:32 PM MST (11/16)
Length of Visible Light 10h 56m
Length of Day
9h 58m
Waxing Crescent, 12% of the Moon is Illuminated
Nov 16
Waxing Crescent
Nov 20
First Quarter
Nov 28
Full
Dec 6
Last Quarter
Dec 13
New

Hourly Weather History & Observations

Time (MST) Temp. Windchill Dew Point Humidity Pressure Visibility Wind Dir Wind Speed Gust Speed Precip Events Conditions
12:53 AM 34.0 °F 27.2 °F 24.1 °F 67% 30.40 in 10.0 mi South 8.1 mph - N/A   Clear
1:53 AM 35.1 °F 27.4 °F 25.0 °F 67% 30.38 in 10.0 mi South 10.4 mph - N/A   Clear
2:53 AM 30.0 °F 20.5 °F 21.9 °F 72% 30.38 in 10.0 mi South 11.5 mph - N/A   Clear
3:53 AM 32.0 °F 23.6 °F 24.1 °F 73% 30.37 in 10.0 mi SSW 10.4 mph - N/A   Clear
4:53 AM 30.9 °F 22.2 °F 24.1 °F 76% 30.39 in 10.0 mi South 10.4 mph - N/A   Clear
5:53 AM 32.0 °F 23.0 °F 24.1 °F 73% 30.38 in 10.0 mi SSW 11.5 mph - N/A   Clear
6:53 AM 30.9 °F 22.2 °F 25.0 °F 79% 30.39 in 10.0 mi SSW 10.4 mph - N/A   Clear
7:53 AM 35.1 °F 26.9 °F 26.1 °F 70% 30.38 in 10.0 mi South 11.5 mph - N/A   Clear
8:53 AM 43.0 °F 35.7 °F 27.0 °F 53% 30.37 in 10.0 mi South 15.0 mph - N/A   Clear
9:53 AM 48.0 °F - 26.1 °F 42% 30.34 in 10.0 mi South 17.3 mph - N/A   Clear
10:53 AM 52.0 °F - 28.0 °F 40% 30.29 in 10.0 mi South 18.4 mph 27.6 mph N/A   Clear
11:53 AM 55.9 °F - 27.0 °F 33% 30.25 in 10.0 mi South 21.9 mph 27.6 mph N/A   Clear
12:53 PM 57.9 °F - 26.1 °F 30% 30.21 in 10.0 mi South 19.6 mph 29.9 mph N/A   Clear
1:53 PM 57.9 °F - 26.1 °F 30% 30.18 in 10.0 mi South 18.4 mph 28.8 mph N/A   Clear
2:53 PM 57.9 °F - 28.9 °F 33% 30.18 in 10.0 mi South 20.7 mph 32.2 mph N/A   Clear
3:53 PM 55.9 °F - 27.0 °F 33% 30.17 in 10.0 mi South 19.6 mph 24.2 mph N/A   Clear
4:53 PM 48.9 °F - 30.0 °F 48% 30.18 in 10.0 mi SSE 13.8 mph - N/A   Clear
5:53 PM 45.0 °F 38.5 °F 30.0 °F 56% 30.19 in 10.0 mi SSE 13.8 mph - N/A   Clear
6:53 PM 44.1 °F 37.1 °F 30.9 °F 60% 30.19 in 10.0 mi South 15.0 mph - N/A   Clear
7:53 PM 43.0 °F 35.1 °F 30.9 °F 62% 30.17 in 10.0 mi South 17.3 mph - N/A   Clear
8:53 PM 41.0 °F 33.1 °F 30.9 °F 67% 30.14 in 10.0 mi South 15.0 mph - N/A   Clear
9:53 PM 41.0 °F 32.5 °F 32.0 °F 70% 30.12 in 10.0 mi South 17.3 mph - N/A   Clear
10:53 PM 39.9 °F 30.2 °F 33.1 °F 77% 30.09 in 10.0 mi South 20.7 mph - N/A   Clear
11:53 PM 39.9 °F 31.1 °F 34.0 °F 79% 30.06 in 10.0 mi South 17.3 mph - N/A   Clear